Regional Weather Roundup
Issued by NWS Kansas City/Pleasant Hill, MO

Home | Current Version | Previous Version | Graphics & Text | Print | Product List | Glossary Off
Versions: 1 2 3 4 5 6 7 8 9 10 11 12 13 14 15 16 17 18 19 20 21 22 23 24 25 26 27

000
ASUS43 KEAX 251310
RWREAX

WEATHER ROUNDUP FOR EASTERN KANSAS AND NORTHWEST MISSOURI
NATIONAL WEATHER SERVICE KANSAS CITY/PLEASANT HILL MO
800 AM CDT MON SEP 25 2017

KSZ040-057-103>105-MOZ028-029-037-043-251400-
...KANSAS CITY METROPOLITAN AREA...

CITY           SKY/WX    TMP DP  RH WIND       PRES   REMARKS
K.C. INTL      PTCLDY    68  65  90 S7        29.95R
K.C. DOWNTOWN  CLEAR     73  65  75 S6        29.94R
LEES SUMMIT    CLEAR     68  65  90 S6        29.96R
OLATHE - IXD   PTCLDY    69  64  84 S8        29.95S
OLATHE - OJC   CLEAR     65  65 100 S5        29.95S
LAWRENCE       CLEAR     68  66  93 E5        29.94R

$$

MOZ001>008-011>017-020>025-030>033-038>040-044>046-053-054-251400-
...NORTHERN AND CENTRAL MISSOURI...

CITY           SKY/WX    TMP DP  RH WIND       PRES   REMARKS
ST. JOSEPH     CLEAR     70  67  90 SE5       29.94R
MOSBY          SUNNY     66  63  88 SE3       29.95S
WARRENSBURG    CLOUDY    68  63  83 SE6       29.96S
WHITEMAN AFB   PTCLDY    68  64  89 S7        29.96R
CLINTON        CLEAR     66  64  94 CALM      29.98S
SEDALIA        CLOUDY    72  68  87 S7        29.99R
WARSAW         NOT AVBL
CHILLICOTHE      N/A     67  66  97 CALM      29.97R
KIRKSVILLE     MOSUNNY   69  66  90 S5        29.98S

$$

MOZ041-047>049-056>058-063>065-088>090-097-251400-
...EASTERN AND SOUTHERN MISSOURI...

CITY           SKY/WX    TMP DP  RH WIND       PRES   REMARKS
ST. LOUIS INTL MOSUNNY   73  66  78 SE5       30.02S
SPIRIT OF STL  SUNNY     68  66  93 CALM      30.01R
COLUMBIA       SUNNY     68  65  90 SE6       30.00R
JEFFERSON CITY SUNNY     67  63  87 SE3       29.99R
ROLLA          SUNNY     70  65  84 S7        30.03R
OSAGE BEACH    SUNNY     68  64  87 SE5       30.01R
SPRINGFIELD    SUNNY     69  66  90 S9        30.00R
BRANSON        MOSUNNY   66  66 100 CALM      30.03R
JOPLIN         PTCLDY    70  66  87 S7        29.97R
WEST PLAINS    SUNNY     65  62  90 CALM      30.05R

$$

IAZ060-094-KSZ022-034>040-054-083-096-NEZ052-066-093-251400-
...KANSAS...SOUTHEAST NEBRASKA AND IOWA...

CITY           SKY/WX    TMP DP  RH WIND       PRES   REMARKS
TOPEKA         CLEAR     68  67  96 CALM      29.93R
MANHATTAN      CLOUDY    72  65  78 S3        29.90S
EMPORIA        CLEAR     68  64  87 S13       29.93R
CHANUTE        PTCLDY    68  64  87 SE7       29.95R
WICHITA        MOCLDY    70  66  87 S8        29.90S
OMAHA          CLOUDY    60  56  86 N12       29.96S
LINCOLN        CLOUDY    58  56  93 NE9       29.97R
FALLS CITY     PTCLDY    67  65  93 S6        29.91S
LAMONI         CLEAR     67  64  90 S3        29.96R
DES MOINES     MOCLDY    68  64  87 S3        29.94R

$$





USA.gov is the U.S. government's official web portal to all federal, state and local government web resources and services.